Showing default

R5-S2, 60207

Orbit data source: Space-Track

R5-S2, 60207 is a payload satellite owned by NASA JSC (US) in SSO that was launched on Thu, 04 Jul 2024 UTC via an FIREFLY ALPHA launch vehicle from the Air Force Western Test Range (AFWTR). Payload-class satellites include a variety of spacecraft equipped with specific instruments for various scientific and technological missions. These include communications satellites like Starlink; space stations such as the ISS; scientific satellites like the Hubble; Earth observation satellites from companies like Planet Labs, Umbra, and HawkEye 360; GPS; miniature CubeSats for education and research; and military/defense satellites.

Loading next visibility...
Identifier
60207, 2024-125E
Orbit
SSO
Country
Flag of USUS
Related business
Manufacturer
NASA JSC
Mission
Operational Civil Technology
Bus & Motor
CUBESAT 6U, Unknown motor
Mass
7.26 kg wet, 7 kg dry
Launch date (UTC)
2024-07-04 (2 years ago)
Launch vehicle
FIREFLY ALPHA
Launch site
Air Force Western Test Range (AFWTR)
Object type
Payload
Rocket body
Debris
Shape & HBR
Box, 1.9 m
Radar Cross Section
0.035 m², Medium (>0.1 m² and < 1m²)

Expand to show TLE details & history
Last TLE update: 14 hours ago

TLE from 14 hours ago
0 R5-S2
1 60207U 24125E   26265.82203853  .00013320  00000-0  25714-3 0  9992
2 60207  97.2246 117.5430 0013197 228.2127 131.7997 15.47835658124278
Epoch: 2026-09-22T19:43Z
TLE epoch observation values (Epoch: 2026-09-22T19:43:44.128Z)
Latitude
-0.00005°
Longitude
179.92713°
Altitude
432.182 km
Speed
7.649 km/s
True Right ascension
07h 50m 10s
True Declination
0° 00' 00"
Sunlit
Object was in daylight at epoch
Visualization orbit readout
Latitude
Unknown
Longitude
Unknown
Altitude
Unknown
Speed
Unknown
Apparent Right ascension
Unknown
Apparent Declination
Unknown
Sunlit
N/A
Visualization observer readout
Local Sidereal Time
03:08:35
Azimuth
Unknown
Elevation
Unknown
Doppler factor
Unknown
Orbital elements
Apogee altitude
428.951 km
Perigee altitude
411.008 km
Semi-major axis
6,798.117 km
Eccentricity
0.00132
Inclination
97.2246°
RAAN
117.543°
Arg. of periapsis
228.2127°
True anomaly
131.91231°
Mean anomaly
131.7997°
Eccentric anomaly
131.85602°
Mean motion
3.87222 °/min
Orbital period
92.97 mins
BSTAR
0.00025714
Loading maneuver chart data...
Computing Atmospheric mass density...
Loading historical data...
Loading historical data...
Loading historical data...
Loading historical data...
Loading historical data...
Loading historical data...
Loading historical data...

Documentation

Showing up to 5 results
|